Location: Unspecified
(51.0000°N, 12.0000°E)
Time: 22:20:23
(UTC+01:00)

OTV 5 (USA 277) - Visible Passes

Search period start: 17 November 2017 00:00
Search period end: 27 November 2017 00:00
Orbit: 404 x 417 km, 43.0° (Epoch: 07 September)

Date Brightness Start Highest point End Pass type
(mag) Time Alt. Az. Time Alt. Az. Time Alt. Az.
17 Nov ? 05:42:03 15° SSW 05:42:37 16° SSW 05:44:43 10° SSE visible
18 Nov ? 04:53:27 13° SSE 04:53:27 13° SSE 04:54:04 10° SE visible
19 Nov ? 05:37:38 10° SSW 05:37:38 10° SSW 05:38:06 10° S visible
